| time (UTC) | temp C | wind direction | speed KPH | gust KPH | rain 1hr cm | rain 24hr cm | rain mn cm | humidity % | barometer mb |
| 20260507075935 | 13 | 336 | 1.6 | 4.8 | 0.00 | 0.00 | 0.00 | 91 | 1012.9 |
| 20260507075430 | 13 | 336 | 0.0 | 3.2 | 0.00 | 0.00 | 0.00 | 91 | 1013.1 |
| 20260507074927 | 13 | 336 | 0.0 | 3.2 | 0.00 | 0.00 | 0.00 | 91 | 1013.1 |
| 20260507074427 | 13 | 336 | 1.6 | 4.8 | 0.00 | 0.00 | 0.00 | 91 | 1013.1 |
| 20260507073927 | 13 | 336 | 1.6 | 4.8 | 0.00 | 0.00 | 0.00 | 91 | 1013.1 |
| 20260507073422 | 13 | 336 | 1.6 | 4.8 | 0.00 | 0.00 | 0.00 | 91 | 1013.1 |
| 20260507072922 | 13 | 336 | 1.6 | 6.4 | 0.00 | 0.00 | 0.00 | 91 | 1013.1 |
| 20260507072422 | 13 | 336 | 1.6 | 6.4 | 0.00 | 0.00 | 0.00 | 91 | 1013.1 |
| 20260507070916 | 13 | 336 | 3.2 | 6.4 | 0.00 | 0.00 | 0.00 | 91 | 1013.1 |
| 20260507070423 | 13 | 336 | 3.2 | 6.4 | 0.00 | 0.00 | 0.00 | 91 | 1013.1 |
| 20260507065916 | 13 | 336 | 1.6 | 6.4 | 0.00 | 0.00 | 0.00 | 91 | 1013.1 |
| 20260507065410 | 13 | 336 | 1.6 | 6.4 | 0.00 | 0.00 | 0.00 | 91 | 1013.1 |
| 20260507064905 | 13 | 336 | 3.2 | 6.4 | 0.00 | 0.00 | 0.00 | 91 | 1013.1 |
| 20260507064406 | 13 | 336 | 3.2 | 6.4 | 0.00 | 0.00 | 0.00 | 90 | 1013.1 |
| 20260507063905 | 13 | 336 | 1.6 | 6.4 | 0.00 | 0.00 | 0.00 | 90 | 1013.2 |
| 20260507063405 | 13 | 336 | 3.2 | 8.0 | 0.00 | 0.00 | 0.00 | 90 | 1013.2 |
| 20260507062906 | 13 | 336 | 3.2 | 8.0 | 0.00 | 0.00 | 0.00 | 90 | 1013.2 |
| 20260507061904 | 13 | 336 | 3.2 | 9.7 | 0.00 | 0.00 | 0.00 | 90 | 1013.2 |
| 20260507061401 | 13 | 336 | 3.2 | 9.7 | 0.00 | 0.00 | 0.00 | 90 | 1013.2 |
| 20260507060858 | 13 | 336 | 3.2 | 9.7 | 0.00 | 0.00 | 0.00 | 90 | 1013.2 |
| 20260507060352 | 13 | 337 | 3.2 | 9.7 | 0.00 | 0.00 | 0.00 | 90 | 1013.2 |
| 20260507055850 | 13 | 336 | 1.6 | 6.4 | 0.00 | 0.00 | 0.00 | 90 | 1013.3 |
| 20260507055350 | 13 | 336 | 3.2 | 9.7 | 0.00 | 0.00 | 0.00 | 90 | 1013.3 |
| 20260507054850 | 13 | 336 | 3.2 | 9.7 | 0.00 | 0.00 | 0.00 | 89 | 1013.3 |
| 20260507054350 | 13 | 336 | 3.2 | 8.0 | 0.00 | 0.00 | 0.00 | 89 | 1013.4 |
| 20260507053848 | 13 | 335 | 3.2 | 8.0 | 0.00 | 0.00 | 0.00 | 89 | 1013.4 |
| 20260507052849 | 13 | 336 | 1.6 | 8.0 | 0.00 | 0.00 | 0.00 | 89 | 1013.2 |
| 20260507052344 | 13 | 336 | 3.2 | 12.9 | 0.00 | 0.00 | 0.00 | 89 | 1013.2 |
| 20260507051836 | 13 | 334 | 3.2 | 12.9 | 0.00 | 0.00 | 0.00 | 89 | 1013.2 |
| 20260507050833 | 13 | 335 | 3.2 | 9.7 | 0.00 | 0.00 | 0.00 | 89 | 1013.2 |
| 20260507050329 | 13 | 333 | 3.2 | 9.7 | 0.00 | 0.00 | 0.00 | 89 | 1013.2 |
| 20260507045828 | 13 | 333 | 3.2 | 9.7 | 0.00 | 0.00 | 0.00 | 89 | 1013.2 |
| 20260507044819 | 13 | 320 | 4.8 | 11.3 | 0.00 | 0.00 | 0.00 | 89 | 1013.2 |
| 20260507044319 | 13 | 335 | 3.2 | 9.7 | 0.00 | 0.00 | 0.00 | 89 | 1013.1 |
| 20260507043814 | 13 | 334 | 3.2 | 8.0 | 0.00 | 0.00 | 0.00 | 89 | 1013.1 |
| 20260507043312 | 13 | 334 | 3.2 | 8.0 | 0.00 | 0.00 | 0.00 | 88 | 1013.1 |
| 20260507042813 | 13 | 335 | 3.2 | 8.0 | 0.00 | 0.00 | 0.00 | 88 | 1013.1 |
| 20260507042311 | 13 | 335 | 3.2 | 6.4 | 0.00 | 0.00 | 0.00 | 88 | 1013.1 |
| 20260507041812 | 13 | 335 | 3.2 | 8.0 | 0.00 | 0.00 | 0.00 | 88 | 1013.1 |
| 20260507041312 | 13 | 335 | 1.6 | 8.0 | 0.00 | 0.00 | 0.00 | 87 | 1012.9 |
| 20260507040812 | 13 | 336 | 3.2 | 11.3 | 0.00 | 0.00 | 0.00 | 87 | 1012.9 |
| 20260507040313 | 13 | 336 | 3.2 | 11.3 | 0.00 | 0.00 | 0.00 | 87 | 1012.9 |
| 20260507035310 | 14 | 334 | 3.2 | 8.0 | 0.00 | 0.00 | 0.00 | 86 | 1012.9 |
| 20260507034807 | 14 | 335 | 3.2 | 11.3 | 0.00 | 0.00 | 0.00 | 86 | 1012.9 |
| 20260507033805 | 14 | 355 | 3.2 | 11.3 | 0.00 | 0.00 | 0.00 | 85 | 1012.7 |
| 20260507033304 | 14 | 327 | 1.6 | 11.3 | 0.00 | 0.00 | 0.00 | 85 | 1012.7 |
| 20260507032759 | 14 | 328 | 3.2 | 8.0 | 0.00 | 0.00 | 0.00 | 85 | 1012.7 |
| 20260507032258 | 14 | 328 | 3.2 | 11.3 | 0.00 | 0.00 | 0.00 | 84 | 1012.7 |
| 20260507031758 | 14 | 329 | 3.2 | 11.3 | 0.00 | 0.00 | 0.00 | 84 | 1012.7 |
| 20260507031257 | 14 | 336 | 3.2 | 9.7 | 0.00 | 0.00 | 0.00 | 84 | 1012.6 |
| 20260507030749 | 14 | 336 | 4.8 | 9.7 | 0.00 | 0.00 | 0.00 | 83 | 1012.6 |
| 20260507030249 | 15 | 329 | 4.8 | 11.3 | 0.00 | 0.00 | 0.00 | 83 | 1012.6 |
| 20260507025749 | 15 | 315 | 4.8 | 11.3 | 0.00 | 0.00 | 0.00 | 82 | 1012.4 |
| 20260507025252 | 15 | 329 | 3.2 | 9.7 | 0.00 | 0.00 | 0.00 | 81 | 1012.4 |
| 20260507024742 | 15 | 334 | 3.2 | 8.0 | 0.00 | 0.00 | 0.00 | 80 | 1012.4 |
| 20260507024241 | 15 | 311 | 3.2 | 8.0 | 0.00 | 0.00 | 0.00 | 79 | 1012.3 |
| 20260507023741 | 16 | 305 | 1.6 | 8.0 | 0.00 | 0.00 | 0.00 | 79 | 1012.3 |
| 20260507022229 | 16 | 309 | 4.8 | 12.9 | 0.00 | 0.00 | 0.00 | 76 | 1012.2 |
| 20260507021729 | 16 | 325 | 4.8 | 9.7 | 0.00 | 0.00 | 0.00 | 75 | 1012.2 |
| 20260507021228 | 16 | 323 | 4.8 | 9.7 | 0.00 | 0.00 | 0.00 | 74 | 1012.2 |
| 20260507020732 | 17 | 322 | 4.8 | 9.7 | 0.00 | 0.00 | 0.00 | 73 | 1012.2 |
| 20260507015725 | 17 | 322 | 4.8 | 12.9 | 0.00 | 0.00 | 0.00 | 70 | 1012.2 |
| 20260507015224 | 18 | 340 | 4.8 | 12.9 | 0.00 | 0.00 | 0.00 | 69 | 1012.2 |
| 20260507014722 | 18 | 279 | 3.2 | 12.9 | 0.00 | 0.00 | 0.00 | 68 | 1012.2 |
| 20260507014219 | 18 | 284 | 3.2 | 9.7 | 0.00 | 0.00 | 0.00 | 67 | 1012.3 |
| 20260507013717 | 18 | 316 | 6.4 | 12.9 | 0.00 | 0.00 | 0.00 | 67 | 1012.3 |
| 20260507013216 | 18 | 319 | 6.4 | 12.9 | 0.00 | 0.00 | 0.00 | 67 | 1012.3 |
| 20260507012212 | 18 | 288 | 4.8 | 12.9 | 0.00 | 0.00 | 0.00 | 65 | 1012.2 |
| 20260507011714 | 18 | 262 | 4.8 | 12.9 | 0.00 | 0.00 | 0.00 | 67 | 1012.2 |
| 20260507011212 | 18 | 273 | 6.4 | 17.7 | 0.00 | 0.00 | 0.00 | 67 | 1012.2 |
| 20260507010711 | 18 | 263 | 8.0 | 24.1 | 0.00 | 0.00 | 0.00 | 66 | 1012.2 |
| 20260507005708 | 18 | 255 | 8.0 | 17.7 | 0.00 | 0.00 | 0.00 | 69 | 1012.2 |
| 20260507005206 | 18 | 275 | 8.0 | 24.1 | 0.00 | 0.00 | 0.00 | 67 | 1012.2 |
| 20260507004701 | 18 | 304 | 8.0 | 24.1 | 0.00 | 0.00 | 0.00 | 68 | 1012.3 |
| 20260507004159 | 18 | 303 | 8.0 | 17.7 | 0.00 | 0.00 | 0.00 | 68 | 1012.3 |
| 20260507003658 | 18 | 272 | 9.7 | 20.9 | 0.00 | 0.00 | 0.00 | 68 | 1012.3 |
| 20260507002700 | 19 | 287 | 8.0 | 16.1 | 0.00 | 0.00 | 0.00 | 66 | 1012.1 |
| 20260507002156 | 19 | 11 | 8.0 | 17.7 | 0.00 | 0.00 | 0.00 | 65 | 1012.1 |
| 20260507001654 | 19 | 339 | 8.0 | 17.7 | 0.00 | 0.00 | 0.00 | 64 | 1012.1 |
| 20260507001155 | 20 | 323 | 6.4 | 16.1 | 0.00 | 0.00 | 0.00 | 63 | 1012.0 |
| 20260507000154 | 20 | 311 | 8.0 | 19.3 | 0.00 | 0.00 | 0.00 | 63 | 1012.0 |
| 20260506235651 | 20 | 308 | 8.0 | 17.7 | 0.00 | 0.00 | 0.00 | 63 | 1011.8 |
| 20260506235153 | 20 | 0 | 8.0 | 22.5 | 0.00 | 0.00 | 0.00 | 63 | 1011.8 |
| 20260506234650 | 20 | 355 | 8.0 | 22.5 | 0.00 | 0.00 | 0.00 | 62 | 1011.8 |
| 20260506234151 | 20 | 322 | 6.4 | 17.7 | 0.00 | 0.00 | 0.00 | 64 | 1011.8 |
| 20260506233649 | 20 | 318 | 8.0 | 17.7 | 0.00 | 0.00 | 0.00 | 64 | 1011.8 |
| 20260506233148 | 20 | 310 | 8.0 | 16.1 | 0.00 | 0.00 | 0.00 | 63 | 1011.8 |
| 20260506232650 | 20 | 320 | 9.7 | 22.5 | 0.00 | 0.00 | 0.00 | 65 | 1011.7 |
| 20260506232153 | 20 | 306 | 11.3 | 22.5 | 0.00 | 0.00 | 0.00 | 63 | 1011.7 |
| 20260506231645 | 20 | 313 | 11.3 | 22.5 | 0.00 | 0.00 | 0.00 | 63 | 1011.7 |
| 20260506231142 | 20 | 304 | 12.9 | 22.5 | 0.00 | 0.00 | 0.00 | 64 | 1011.8 |
| 20260506230640 | 19 | 316 | 12.9 | 24.1 | 0.00 | 0.00 | 0.00 | 63 | 1011.8 |
| 20260506230139 | 20 | 267 | 12.9 | 24.1 | 0.00 | 0.00 | 0.00 | 63 | 1011.8 |
| 20260506225637 | 20 | 303 | 12.9 | 24.1 | 0.00 | 0.00 | 0.00 | 64 | 1011.8 |
| 20260506225137 | 20 | 312 | 12.9 | 20.9 | 0.00 | 0.00 | 0.00 | 64 | 1011.8 |
| 20260506224638 | 19 | 305 | 14.5 | 24.1 | 0.00 | 0.00 | 0.00 | 65 | 1011.8 |
| 20260506223134 | 20 | 309 | 11.3 | 22.5 | 0.00 | 0.00 | 0.00 | 65 | 1012.0 |
| 20260506222639 | 20 | 314 | 11.3 | 27.4 | 0.00 | 0.00 | 0.00 | 64 | 1012.2 |
| 20260506222133 | 20 | 302 | 12.9 | 27.4 | 0.00 | 0.00 | 0.00 | 67 | 1012.2 |
| 20260506221630 | 20 | 308 | 11.3 | 24.1 | 0.00 | 0.00 | 0.00 | 66 | 1012.2 |
| 20260506221127 | 20 | 311 | 11.3 | 25.7 | 0.00 | 0.00 | 0.00 | 66 | 1012.3 |
| 20260506220626 | 20 | 281 | 12.9 | 29.0 | 0.00 | 0.00 | 0.00 | 66 | 1012.3 |
| 20260506220127 | 20 | 297 | 11.3 | 29.0 | 0.00 | 0.00 | 0.00 | 64 | 1012.3 |
| 20260506215126 | 20 | 286 | 11.3 | 25.7 | 0.00 | 0.00 | 0.00 | 65 | 1012.4 |
| 20260506213120 | 20 | 292 | 9.7 | 22.5 | 0.00 | 0.00 | 0.00 | 64 | 1012.6 |
| 20260506212620 | 20 | 321 | 11.3 | 22.5 | 0.00 | 0.00 | 0.00 | 64 | 1012.8 |
| 20260506212112 | 20 | 304 | 11.3 | 22.5 | 0.00 | 0.00 | 0.00 | 66 | 1012.8 |
| 20260506211610 | 20 | 315 | 9.7 | 20.9 | 0.00 | 0.00 | 0.00 | 65 | 1012.8 |
| 20260506211107 | 20 | 287 | 11.3 | 19.3 | 0.00 | 0.00 | 0.00 | 65 | 1012.8 |
| 20260506210608 | 20 | 338 | 11.3 | 20.9 | 0.00 | 0.00 | 0.00 | 66 | 1012.8 |
| 20260506210108 | 20 | 304 | 11.3 | 20.9 | 0.00 | 0.00 | 0.00 | 66 | 1012.8 |
| 20260506205105 | 20 | 319 | 11.3 | 22.5 | 0.00 | 0.00 | 0.00 | 67 | 1012.8 |
| 20260506204604 | 20 | 277 | 11.3 | 24.1 | 0.00 | 0.00 | 0.00 | 67 | 1012.8 |
| 20260506203605 | 20 | 316 | 11.3 | 25.7 | 0.00 | 0.00 | 0.00 | 64 | 1012.9 |
| 20260506203101 | 20 | 315 | 11.3 | 25.7 | 0.00 | 0.00 | 0.00 | 66 | 1012.9 |
| 20260506202555 | 21 | 308 | 11.3 | 25.7 | 0.00 | 0.00 | 0.00 | 64 | 1012.9 |
| 20260506201553 | 21 | 333 | 11.3 | 20.9 | 0.00 | 0.00 | 0.00 | 63 | 1012.9 |
| 20260506201049 | 21 | 317 | 9.7 | 20.9 | 0.00 | 0.00 | 0.00 | 63 | 1013.0 |
| 20260506200548 | 21 | 325 | 8.0 | 19.3 | 0.00 | 0.00 | 0.00 | 64 | 1013.0 |
| 20260506200046 | 21 | 323 | 8.0 | 19.3 | 0.00 | 0.00 | 0.00 | 64 | 1013.0 |
| 20260506195546 | 20 | 5 | 11.3 | 25.7 | 0.00 | 0.00 | 0.00 | 65 | 1012.9 |
| 20260506195046 | 20 | 321 | 11.3 | 25.7 | 0.00 | 0.00 | 0.00 | 64 | 1012.9 |
| 20260506194546 | 21 | 28 | 9.7 | 20.9 | 0.00 | 0.00 | 0.00 | 63 | 1012.9 |
| 20260506193541 | 21 | 315 | 11.3 | 20.9 | 0.00 | 0.00 | 0.00 | 63 | 1012.8 |
| 20260506192535 | 22 | 328 | 8.0 | 19.3 | 0.00 | 0.00 | 0.00 | 61 | 1013.0 |
| 20260506192034 | 22 | 319 | 9.7 | 20.9 | 0.00 | 0.00 | 0.00 | 61 | 1013.0 |
| 20260506191534 | 22 | 313 | 9.7 | 20.9 | 0.00 | 0.00 | 0.00 | 61 | 1013.0 |
| 20260506191031 | 21 | 320 | 8.0 | 16.1 | 0.00 | 0.00 | 0.00 | 63 | 1013.2 |
| 20260506190530 | 21 | 316 | 8.0 | 17.7 | 0.00 | 0.00 | 0.00 | 62 | 1013.2 |
| 20260506190025 | 21 | 323 | 8.0 | 17.7 | 0.00 | 0.00 | 0.00 | 62 | 1013.2 |
| 20260506185523 | 21 | 317 | 8.0 | 17.7 | 0.00 | 0.00 | 0.00 | 64 | 1013.3 |
| 20260506184517 | 21 | 315 | 9.7 | 17.7 | 0.00 | 0.00 | 0.00 | 62 | 1013.3 |
| 20260506184021 | 21 | 317 | 8.0 | 17.7 | 0.00 | 0.00 | 0.00 | 62 | 1013.2 |
| 20260506183520 | 21 | 289 | 8.0 | 16.1 | 0.00 | 0.00 | 0.00 | 61 | 1013.2 |
| 20260506183018 | 21 | 305 | 8.0 | 17.7 | 0.00 | 0.00 | 0.00 | 60 | 1013.2 |
| 20260506182514 | 21 | 315 | 8.0 | 19.3 | 0.00 | 0.00 | 0.00 | 61 | 1013.4 |
| 20260506182011 | 21 | 335 | 8.0 | 19.3 | 0.00 | 0.00 | 0.00 | 61 | 1013.4 |
| 20260506181511 | 22 | 297 | 6.4 | 14.5 | 0.00 | 0.00 | 0.00 | 60 | 1013.4 |
| 20260506181010 | 22 | 337 | 6.4 | 14.5 | 0.00 | 0.00 | 0.00 | 58 | 1013.4 |
| 20260506180512 | 22 | 314 | 6.4 | 12.9 | 0.00 | 0.00 | 0.00 | 59 | 1013.4 |
| 20260506180010 | 22 | 351 | 6.4 | 12.9 | 0.00 | 0.00 | 0.00 | 58 | 1013.4 |
| 20260506175512 | 22 | 311 | 4.8 | 11.3 | 0.00 | 0.00 | 0.00 | 59 | 1013.4 |
| 20260506174514 | 23 | 307 | 4.8 | 12.9 | 0.00 | 0.00 | 0.00 | 58 | 1013.4 |
| 20260506174006 | 23 | 34 | 3.2 | 8.0 | 0.00 | 0.00 | 0.00 | 57 | 1013.4 |
| 20260506173502 | 22 | 5 | 3.2 | 11.3 | 0.00 | 0.00 | 0.00 | 55 | 1013.4 |
| 20260506173001 | 22 | 40 | 3.2 | 11.3 | 0.00 | 0.00 | 0.00 | 56 | 1013.4 |
| 20260506172500 | 22 | 34 | 1.6 | 6.4 | 0.00 | 0.00 | 0.00 | 57 | 1013.4 |
| 20260506171455 | 22 | 30 | 3.2 | 8.0 | 0.00 | 0.00 | 0.00 | 59 | 1013.4 |
| 20260506170955 | 22 | 5 | 3.2 | 8.0 | 0.00 | 0.00 | 0.00 | 59 | 1013.4 |
| 20260506170456 | 21 | 0 | 3.2 | 8.0 | 0.00 | 0.00 | 0.00 | 61 | 1013.4 |
| 20260506165950 | 21 | 341 | 3.2 | 6.4 | 0.00 | 0.00 | 0.00 | 60 | 1013.4 |
| 20260506165444 | 21 | 341 | 3.2 | 8.0 | 0.00 | 0.00 | 0.00 | 61 | 1013.4 |
| 20260506164942 | 20 | 344 | 3.2 | 8.0 | 0.00 | 0.00 | 0.00 | 62 | 1013.4 |
| 20260506164442 | 20 | 344 | 3.2 | 6.4 | 0.00 | 0.00 | 0.00 | 64 | 1013.4 |
| 20260506163438 | 20 | 280 | 3.2 | 8.0 | 0.00 | 0.00 | 0.00 | 64 | 1013.3 |
| 20260506162941 | 20 | 285 | 3.2 | 11.3 | 0.00 | 0.00 | 0.00 | 65 | 1013.3 |
| 20260506162440 | 19 | 289 | 3.2 | 11.3 | 0.00 | 0.00 | 0.00 | 65 | 1013.4 |
| 20260506161938 | 20 | 297 | 3.2 | 8.0 | 0.00 | 0.00 | 0.00 | 65 | 1013.4 |
| 20260506161441 | 19 | 355 | 3.2 | 8.0 | 0.00 | 0.00 | 0.00 | 66 | 1013.4 |
| 20260506160435 | 18 | 355 | 3.2 | 8.0 | 0.00 | 0.00 | 0.00 | 68 | 1013.4 |
| 20260506155935 | 18 | 355 | 3.2 | 6.4 | 0.00 | 0.00 | 0.00 | 71 | 1013.3 |
| 20260506154931 | 17 | 236 | 3.2 | 8.0 | 0.00 | 0.00 | 0.00 | 75 | 1013.5 |
| 20260506154429 | 17 | 311 | 3.2 | 11.3 | 0.00 | 0.00 | 0.00 | 75 | 1013.5 |
| 20260506153928 | 17 | 272 | 3.2 | 11.3 | 0.00 | 0.00 | 0.00 | 76 | 1013.7 |
| 20260506152925 | 16 | 343 | 3.2 | 6.4 | 0.00 | 0.00 | 0.00 | 77 | 1013.7 |
| 20260506151927 | 16 | 320 | 3.2 | 8.0 | 0.00 | 0.00 | 0.00 | 80 | 1013.8 |
| 20260506151422 | 15 | 320 | 3.2 | 8.0 | 0.00 | 0.00 | 0.00 | 81 | 1013.8 |
| 20260506150921 | 15 | 317 | 1.6 | 6.4 | 0.00 | 0.00 | 0.00 | 84 | 1013.8 |
| 20260506150418 | 15 | 317 | 3.2 | 6.4 | 0.00 | 0.00 | 0.00 | 87 | 1013.8 |
| 20260506145914 | 14 | 317 | 3.2 | 6.4 | 0.00 | 0.00 | 0.00 | 90 | 1013.7 |
| 20260506145416 | 13 | 317 | 3.2 | 6.4 | 0.00 | 0.00 | 0.00 | 92 | 1013.7 |
| 20260506144909 | 13 | 269 | 1.6 | 4.8 | 0.00 | 0.00 | 0.00 | 94 | 1013.7 |
| 20260506144412 | 13 | 269 | 0.0 | 4.8 | 0.00 | 0.00 | 0.00 | 95 | 1013.7 |
| 20260506143914 | 12 | 269 | 0.0 | 4.8 | 0.00 | 0.00 | 0.00 | 95 | 1013.3 |
| 20260506143408 | 12 | 268 | 1.6 | 3.2 | 0.00 | 0.00 | 0.00 | 95 | 1013.3 |
| 20260506142404 | 12 | 268 | 0.0 | 1.6 | 0.00 | 0.00 | 0.00 | 97 | 1013.2 |
| 20260506141858 | 11 | 268 | 0.0 | 1.6 | 0.00 | 0.00 | 0.00 | 97 | 1013.2 |
| 20260506141358 | 11 | 268 | 0.0 | 1.6 | 0.00 | 0.00 | 0.00 | 97 | 1013.1 |
| 20260506140856 | 10 | 268 | 0.0 | 3.2 | 0.00 | 0.00 | 0.00 | 96 | 1013.1 |
| 20260506140355 | 10 | 268 | 0.0 | 4.8 | 0.00 | 0.00 | 0.00 | 96 | 1013.1 |
| 20260506135852 | 10 | 268 | 0.0 | 4.8 | 0.00 | 0.00 | 0.00 | 96 | 1013.0 |
| 20260506134854 | 9 | 268 | 0.0 | 3.2 | 0.00 | 0.00 | 0.00 | 96 | 1013.0 |
| 20260506134351 | 8 | 268 | 0.0 | 0.0 | 0.00 | 0.00 | 0.00 | 95 | 1013.0 |
| 20260506133352 | 8 | 268 | 0.0 | 1.6 | 0.00 | 0.00 | 0.00 | 95 | 1013.0 |
| 20260506132848 | 8 | 268 | 0.0 | 1.6 | 0.00 | 0.00 | 0.00 | 95 | 1012.8 |
| 20260506131852 | 8 | 268 | 0.0 | 3.2 | 0.00 | 0.00 | 0.00 | 95 | 1012.8 |
| 20260506131342 | 8 | 268 | 0.0 | 3.2 | 0.00 | 0.00 | 0.00 | 95 | 1012.7 |
| 20260506130838 | 8 | 268 | 0.0 | 3.2 | 0.00 | 0.00 | 0.00 | 95 | 1012.7 |
| 20260506130335 | 8 | 268 | 0.0 | 3.2 | 0.00 | 0.00 | 0.00 | 95 | 1012.7 |
| 20260506125834 | 8 | 268 | 0.0 | 3.2 | 0.00 | 0.00 | 0.00 | 95 | 1012.6 |
| 20260506125336 | 8 | 268 | 0.0 | 0.0 | 0.00 | 0.00 | 0.00 | 95 | 1012.6 |
| 20260506124832 | 8 | 268 | 0.0 | 0.0 | 0.00 | 0.00 | 0.00 | 94 | 1012.6 |
| 20260506124328 | 8 | 268 | 0.0 | 0.0 | 0.00 | 0.00 | 0.00 | 94 | 1012.6 |
| 20260506123831 | 8 | 268 | 0.0 | 0.0 | 0.00 | 0.00 | 0.00 | 94 | 1012.6 |
| 20260506123328 | 8 | 268 | 0.0 | 0.0 | 0.00 | 0.00 | 0.00 | 95 | 1012.6 |
| 20260506121815 | 8 | 268 | 0.0 | 0.0 | 0.00 | 0.00 | 0.00 | 94 | 1012.5 |
| 20260506121314 | 8 | 268 | 0.0 | 0.0 | 0.00 | 0.00 | 0.00 | 94 | 1012.5 |
| 20260506120819 | 8 | 268 | 0.0 | 0.0 | 0.00 | 0.00 | 0.00 | 95 | 1012.5 |
| 20260506120314 | 8 | 268 | 0.0 | 0.0 | 0.00 | 0.00 | 0.00 | 94 | 1012.5 |
| 20260506115807 | 8 | 268 | 0.0 | 0.0 | 0.00 | 0.00 | 0.00 | 94 | 1012.6 |
| 20260506115307 | 8 | 268 | 0.0 | 0.0 | 0.00 | 0.00 | 0.00 | 94 | 1012.6 |
| 20260506114800 | 8 | 268 | 0.0 | 0.0 | 0.00 | 0.00 | 0.00 | 94 | 1012.6 |
| 20260506114257 | 8 | 268 | 0.0 | 0.0 | 0.00 | 0.00 | 0.00 | 94 | 1012.6 |
| 20260506113756 | 8 | 268 | 0.0 | 0.0 | 0.00 | 0.00 | 0.00 | 94 | 1012.6 |
| 20260506112749 | 8 | 268 | 0.0 | 0.0 | 0.00 | 0.00 | 0.00 | 94 | 1012.6 |
| 20260506111746 | 8 | 268 | 0.0 | 0.0 | 0.00 | 0.00 | 0.00 | 94 | 1012.6 |
| 20260506111242 | 8 | 268 | 0.0 | 0.0 | 0.00 | 0.00 | 0.00 | 94 | 1012.6 |
| 20260506110737 | 8 | 268 | 0.0 | 3.2 | 0.00 | 0.00 | 0.00 | 94 | 1012.6 |
| 20260506110236 | 8 | 268 | 0.0 | 3.2 | 0.00 | 0.00 | 0.00 | 94 | 1012.6 |
| 20260506105732 | 8 | 268 | 0.0 | 0.0 | 0.00 | 0.00 | 0.00 | 93 | 1012.6 |
| 20260506105229 | 8 | 268 | 0.0 | 0.0 | 0.00 | 0.00 | 0.00 | 94 | 1012.6 |
| 20260506104723 | 8 | 268 | 0.0 | 0.0 | 0.00 | 0.00 | 0.00 | 94 | 1012.6 |
| 20260506104227 | 8 | 268 | 0.0 | 0.0 | 0.00 | 0.00 | 0.00 | 94 | 1012.6 |
| 20260506103722 | 8 | 268 | 0.0 | 0.0 | 0.00 | 0.00 | 0.00 | 93 | 1012.6 |
| 20260506102718 | 9 | 268 | 0.0 | 0.0 | 0.00 | 0.00 | 0.00 | 93 | 1012.6 |
| 20260506101717 | 9 | 268 | 0.0 | 0.0 | 0.00 | 0.00 | 0.00 | 94 | 1012.6 |
| 20260506101213 | 9 | 268 | 0.0 | 0.0 | 0.00 | 0.00 | 0.00 | 93 | 1012.5 |
| 20260506100710 | 9 | 268 | 0.0 | 0.0 | 0.00 | 0.00 | 0.00 | 93 | 1012.5 |
| 20260506100211 | 9 | 268 | 0.0 | 0.0 | 0.00 | 0.00 | 0.00 | 93 | 1012.5 |
| 20260506095708 | 9 | 268 | 0.0 | 0.0 | 0.00 | 0.00 | 0.00 | 93 | 1012.5 |
| 20260506095207 | 9 | 268 | 0.0 | 0.0 | 0.00 | 0.00 | 0.00 | 93 | 1012.5 |
| 20260506094701 | 9 | 268 | 0.0 | 0.0 | 0.00 | 0.00 | 0.00 | 93 | 1012.5 |
| 20260506094202 | 9 | 268 | 0.0 | 0.0 | 0.00 | 0.00 | 0.00 | 93 | 1012.5 |
| 20260506093656 | 10 | 268 | 0.0 | 0.0 | 0.00 | 0.00 | 0.00 | 93 | 1012.5 |
| 20260506093156 | 10 | 268 | 0.0 | 1.6 | 0.00 | 0.00 | 0.00 | 93 | 1012.5 |
| 20260506092657 | 10 | 268 | 0.0 | 1.6 | 0.00 | 0.00 | 0.00 | 93 | 1012.5 |
| 20260506092157 | 10 | 268 | 0.0 | 0.0 | 0.00 | 0.00 | 0.00 | 93 | 1012.5 |
| 20260506091653 | 10 | 268 | 0.0 | 1.6 | 0.00 | 0.00 | 0.00 | 93 | 1012.6 |
| 20260506091147 | 10 | 268 | 0.0 | 3.2 | 0.00 | 0.00 | 0.00 | 92 | 1012.8 |
| 20260506090644 | 10 | 268 | 0.0 | 3.2 | 0.00 | 0.00 | 0.00 | 93 | 1012.8 |
| 20260506090138 | 10 | 268 | 0.0 | 0.0 | 0.00 | 0.00 | 0.00 | 92 | 1012.8 |
| 20260506085637 | 10 | 268 | 0.0 | 0.0 | 0.00 | 0.00 | 0.00 | 93 | 1012.9 |
| 20260506085131 | 10 | 268 | 0.0 | 0.0 | 0.00 | 0.00 | 0.00 | 93 | 1012.9 |
| 20260506084632 | 10 | 268 | 0.0 | 0.0 | 0.00 | 0.00 | 0.00 | 92 | 1012.9 |
| 20260506084132 | 10 | 268 | 0.0 | 0.0 | 0.00 | 0.00 | 0.00 | 92 | 1013.0 |
| 20260506082619 | 10 | 268 | 0.0 | 0.0 | 0.00 | 0.00 | 0.00 | 92 | 1013.1 |
| 20260506081609 | 10 | 268 | 0.0 | 1.6 | 0.00 | 0.00 | 0.00 | 91 | 1013.1 |
| 20260506081110 | 10 | 268 | 0.0 | 1.6 | 0.00 | 0.00 | 0.00 | 92 | 1013.0 |
| 20260506080606 | 10 | 268 | 0.0 | 3.2 | 0.00 | 0.00 | 0.00 | 91 | 1013.0 |